Wind_Speed
40 42 44 46 49 50 55 57 60 58 60 56 38 57 60 57 57 57 57 56 69 73 72 66 60 55 59 67 68 60 52 50 51 50 52 48 45 49 53 53 47 44 44 35
41 43 45 50 53 56 59 61 59 61 63 67 65 67 61 61 60 60 59 59 57 60 58 61 60 60 64 67 66 60 51 50 51 52 52 50 48 52 55 53 45 43 41 29
40 41 44 48 50 53 55 59 62 66 67 69 67 71 67 65 66 63 64 62 59 60 61 61 63 67 69 72 71 63 54 53 54 54 55 52 53 53 57 55 44 40 31 25
37 38 41 44 47 48 52 51 56 61 64 70 63 72 71 66 66 67 63 61 61 61 60 63 64 63 64 62 65 67 64 60 55 53 54 53 55 52 55 52 44 32 27 24
32 32 37 40 43 46 53 51 52 55 59 63 65 64 73 69 69 68 68 64 63 63 62 61 63 64 55 50 53 56 57 61 62 57 55 58 56 53 51 45 38 28 25 24
31 28 33 39 32 31 35 36 43 48 44 57 68 58 74 72 71 71 70 68 66 67 61 60 61 57 56 53 50 52 49 48 51 55 56 54 47 46 45 38 30 28 24 26
26 25 34 29 30 22 21 24 32 38 35 47 48 39 56 69 71 70 68 55 50 43 55 62 60 58 51 50 51 48 47 41 39 45 42 38 42 40 40 31 30 25 24 28
30 32 25 26 25 33 28 23 31 36 29 28 24 35 38 54 59 59 68 59 51 54 60 63 56 52 49 52 47 44 44 41 42 39 36 36 38 38 33 31 27 25 26 28
29 29 25 23 23 22 18 24 24 21 23 29 32 33 36 38 43 51 48 39 36 60 59 62 54 47 52 50 46 40 42 41 41 38 36 34 34 34 29 29 25 28 28 25
31 38 27 25 21 20 17 19 19 21 28 33 22 25 19 19 21 17 39 35 40 41 56 60 52 45 48 48 44 40 38 39 37 35 31 32 31 30 27 27 28 24 22 23
31 36 22 20 18 13 17 17 19 27 24 24 27 20 9 26 30 31 44 18 26 42 56 53 49 51 49 43 39 39 39 36 33 30 30 29 27 27 26 26 21 19 20 21
26 29 25 19 15 21 29 19 30 22 28 23 28 26 30 20 32 38 39 32 34 45 45 50 46 45 45 43 40 39 34 33 30 31 27 27 27 24 24 21 20 19 19 19
22 20 22 19 10 22 25 26 27 30 30 28 29 23 24 22 33 43 39 35 24 40 46 42 46 41 42 43 43 37 35 33 30 27 27 25 23 22 20 21 19 18 18 17
20 18 22 21 22 24 27 12 9 22 31 26 22 28 29 36 27 49 31 26 13 46 42 39 40 41 42 42 39 36 36 32 28 27 24 22 22 20 20 18 18 18 16 17
21 17 21 22 19 24 20 21 17 20 21 27 30 29 33 30 41 43 29 27 10 41 35 33 37 42 42 39 37 37 32 26 26 24 22 21 20 20 17 17 18 15 16 20
20 25 25 12 19 20 16 17 20 18 25 25 28 27 23 30 28 13 19 16 37 43 32 36 35 34 34 37 34 32 29 25 24 22 20 18 17 16 17 16 15 15 19 22
21 26 25 17 22 17 14 12 20 31 28 34 32 27 24 22 19 20 23 32 46 47 40 37 33 28 30 31 32 29 26 24 22 20 17 16 15 15 13 13 14 17 20 18
21 24 28 22 16 18 16 18 24 20 22 26 28 31 25 26 30 30 22 27 38 50 48 38 34 33 35 30 28 28 25 24 20 17 15 14 13 12 12 12 14 13 12 12
21 20 25 17 17 17 14 13 14 17 4 30 23 23 24 21 32 26 21 38 43 51 43 37 33 33 29 30 29 25 25 20 17 14 12 12 10 11 10 12 9 9 9 10
19 19 21 17 21 18 17 15 18 23 12 24 26 21 20 24 31 29 32 37 39 46 43 39 33 32 31 30 26 24 20 17 14 11 12 8 10 9 10 8 10 9 10 10
18 21 23 21 20 22 24 23 20 28 16 17 25 22 25 32 37 35 40 39 49 44 42 38 32 34 30 27 24 21 18 14 10 12 8 9 7 6 5 7 9 9 8 8
19 22 23 27 25 23 24 27 27 23 23 17 21 22 28 35 41 40 44 44 44 46 44 38 38 38 31 26 24 19 15 10 12 10 8 8 5 4 4 5 9 9 8 8
19 24 26 26 31 27 16 29 26 27 22 13 17 23 29 43 36 47 43 41 46 47 41 40 35 37 31 25 21 16 11 13 12 10 9 6 5 6 6 7 9 9 9 10
19 21 23 29 29 27 29 31 29 29 14 14 17 23 37 51 41 51 40 43 45 43 40 38 27 36 30 22 17 12 13 13 11 9 7 5 5 6 5 4 7 7 8 9
19 24 25 24 29 32 30 29 25 16 7 15 16 26 37 45 52 47 45 48 45 43 37 32 27 25 23 19 15 13 14 13 11 9 6 5 4 3 4 6 8 9 7 8
21 28 27 25 30 38 29 15 7 5 11 12 32 37 40 50 52 48 49 47 47 41 37 32 29 24 20 17 14 15 15 12 11 9 6 4 3 3 5 8 9 11 11 9
Wind_Direction
268 268 267 266 265 259 253 250 251 250 251 246 237 246 247 248 245 244 244 244 248 246 246 245 249 251 253 253 253 254 259 260 267 272 276 285 290 294 297 300 299 301 297 294
270 268 265 262 260 261 261 260 255 252 250 249 251 251 250 247 247 247 244 242 241 246 250 248 248 248 252 256 258 261 264 264 266 268 272 278 283 289 293 296 298 295 291 289
274 272 271 269 266 263 261 261 262 260 253 252 251 251 248 246 249 248 246 246 241 239 245 247 244 246 249 254 261 265 261 262 266 269 273 276 278 286 292 296 295 290 283 283
279 275 271 267 265 264 262 261 257 256 254 255 249 251 248 248 249 251 250 252 253 248 244 245 247 247 250 257 261 265 266 267 266 266 273 278 277 281 287 290 288 281 276 284
290 287 280 275 266 259 260 251 251 253 251 252 249 251 250 247 246 247 250 249 251 249 249 247 247 253 257 257 255 256 261 263 264 265 268 273 276 276 281 282 282 272 276 283
316 302 305 294 282 278 280 262 262 259 259 256 250 252 250 247 247 246 247 248 249 249 249 250 246 248 251 254 256 257 261 266 266 263 265 269 269 271 273 275 274 273 278 283
297 292 279 277 274 284 276 269 274 276 261 265 262 262 258 246 246 245 242 237 242 241 249 245 246 245 247 252 252 256 257 259 258 259 261 264 265 264 270 269 269 273 278 280
307 302 283 280 267 271 294 288 269 270 258 265 252 252 259 244 241 240 240 236 233 236 245 249 246 248 246 246 249 250 251 251 255 255 260 257 258 261 266 265 269 276 276 281
312 310 286 283 273 264 262 272 272 280 254 271 276 256 264 251 250 251 232 226 228 242 245 247 247 246 242 243 245 244 244 246 250 253 251 253 255 258 260 264 273 273 277 281
307 306 290 275 269 275 257 273 269 272 275 272 277 278 268 235 230 243 205 212 226 235 243 245 242 245 240 240 241 239 238 241 245 246 249 252 249 254 258 266 271 277 275 273
306 312 314 279 264 264 257 267 252 257 277 285 272 249 229 231 218 196 191 204 224 230 238 238 232 233 234 235 236 237 235 239 240 241 245 247 246 250 259 268 270 268 269 275
310 311 303 295 294 233 270 231 264 259 280 267 270 208 243 239 219 194 174 213 219 225 222 226 225 228 229 231 230 234 233 234 236 238 242 240 243 254 259 263 265 270 275 280
322 324 305 291 272 271 253 251 257 263 275 261 271 218 267 210 202 198 185 191 210 217 209 217 220 221 222 224 226 229 227 229 234 238 237 241 247 248 252 257 264 272 276 280
317 321 311 293 272 256 279 258 231 268 259 270 279 279 286 220 188 189 192 183 199 212 203 208 216 212 215 220 221 223 224 227 233 234 235 241 245 245 254 259 267 267 273 285
335 312 308 310 301 280 265 262 258 263 280 282 285 291 295 260 164 184 177 185 136 204 184 187 202 211 214 215 216 217 221 224 226 228 233 236 239 250 257 263 263 269 278 285
333 335 318 310 293 300 292 269 253 250 273 281 289 290 305 289 267 266 173 163 198 191 174 181 188 197 200 210 212 216 218 218 218 224 229 237 248 253 256 258 267 275 277 284
321 321 321 337 289 287 299 262 253 251 251 257 261 263 272 258 249 263 165 198 201 196 182 180 181 178 190 194 193 203 208 209 216 222 231 241 242 248 251 264 272 275 282 278
326 326 324 324 310 291 285 256 258 275 284 257 260 267 262 274 269 258 207 208 195 189 187 184 176 175 178 183 188 195 202 208 212 223 233 234 242 245 259 266 273 274 272 276
330 325 321 328 318 315 310 297 278 287 289 264 261 261 242 261 258 239 235 217 189 180 181 182 180 180 170 181 189 196 205 205 214 224 225 232 237 251 258 270 254 265 293 274
332 330 320 314 329 318 327 324 314 322 317 265 263 250 227 230 250 242 226 212 183 186 178 178 181 174 178 185 186 196 202 206 216 214 222 232 237 253 268 254 242 268 294 274
325 324 323 312 319 319 308 285 292 302 295 260 249 244 227 241 220 213 202 194 188 179 180 180 186 179 180 179 182 194 201 208 204 213 214 227 242 259 263 244 249 263 270 263
324 322 324 317 309 319 287 285 294 293 292 265 233 233 204 225 207 203 190 190 181 182 184 187 196 167 173 176 185 194 201 197 208 211 212 219 219 254 272 262 247 242 254 260
322 321 318 314 316 323 321 322 299 292 286 247 225 213 192 205 197 189 187 189 178 181 182 190 190 164 168 179 185 198 186 203 206 210 204 211 230 248 258 264 242 235 242 246
323 324 320 314 314 320 313 300 281 289 257 226 217 203 183 196 199 190 186 176 171 176 182 192 174 162 169 173 186 190 198 199 208 200 198 211 231 237 234 224 220 221 231 236
334 338 328 315 311 324 320 314 277 252 231 221 206 168 168 185 189 184 178 167 169 177 180 184 146 160 165 172 189 189 195 202 199 191 196 212 236 222 220 219 209 210 221 212
336 327 331 320 323 329 319 312 248 198 232 214 164 164 174 178 178 176 171 169 175 185 168 182 171 170 173 183 186 191 195 199 195 187 193 201 212 237 248 228 211 211 217 209
Height
5705 5705 5705 5705 5705 5708 5704 5706 5710 5717 5719 5713 5714 5720 5730 5739 5741 5745 5750 5754 5759 5763 5770 5778 5779 5784 5785 5783 5784 5794 5802 5806 5807 5806 5806 5808 5810 5809 5809 5808 5805 5802 5801 5799
5695 5694 5694 5692 5693 5692 5690 5690 5697 5698 5700 5696 5702 5707 5719 5721 5724 5732 5737 5741 5747 5752 5759 5764 5769 5773 5771 5771 5776 5786 5796 5799 5801 5800 5803 5805 5803 5803 5802 5800 5798 5795 5794 5792
5683 5682 5681 5679 5680 5679 5679 5678 5681 5679 5681 5679 5692 5687 5701 5708 5710 5717 5722 5727 5735 5740 5746 5751 5758 5759 5763 5764 5765 5775 5785 5790 5793 5794 5793 5797 5795 5796 5793 5788 5790 5790 5787 5785
5672 5671 5668 5669 5669 5664 5663 5666 5665 5662 5664 5666 5672 5666 5682 5697 5701 5704 5711 5717 5722 5728 5733 5737 5742 5748 5753 5758 5762 5765 5771 5776 5781 5786 5784 5786 5786 5790 5787 5783 5783 5783 5779 5778
5660 5656 5653 5654 5653 5648 5650 5647 5645 5646 5646 5647 5653 5653 5670 5680 5686 5689 5695 5703 5707 5712 5718 5726 5732 5736 5746 5751 5752 5755 5759 5763 5768 5775 5776 5776 5777 5781 5778 5777 5776 5775 5772 5772
5646 5646 5641 5637 5638 5636 5636 5634 5633 5633 5633 5629 5643 5641 5645 5661 5668 5676 5681 5687 5694 5699 5707 5712 5720 5729 5733 5738 5743 5746 5750 5754 5758 5761 5765 5768 5768 5770 5768 5770 5770 5767 5765 5765
5643 5642 5634 5631 5630 5629 5627 5626 5624 5622 5622 5618 5628 5629 5627 5650 5650 5657 5664 5672 5681 5687 5691 5700 5708 5716 5724 5729 5731 5738 5742 5747 5749 5752 5755 5758 5759 5761 5761 5764 5762 5760 5759 5759
5633 5629 5627 5623 5622 5619 5620 5619 5618 5612 5615 5616 5619 5616 5620 5622 5628 5637 5649 5659 5668 5672 5679 5687 5699 5708 5716 5717 5723 5729 5733 5738 5741 5743 5747 5750 5751 5752 5755 5756 5754 5753 5753 5752
5625 5622 5620 5619 5617 5616 5616 5614 5614 5606 5603 5606 5609 5609 5609 5617 5624 5631 5639 5652 5655 5659 5667 5678 5691 5698 5703 5709 5715 5721 5724 5730 5732 5737 5740 5742 5743 5744 5749 5748 5747 5746 5746 5746
5619 5611 5611 5610 5609 5609 5608 5610 5609 5607 5602 5600 5601 5604 5606 5614 5608 5620 5634 5639 5643 5650 5658 5669 5680 5691 5695 5701 5707 5712 5717 5721 5726 5729 5732 5734 5736 5739 5741 5740 5740 5741 5740 5740
5612 5607 5605 5603 5603 5603 5605 5605 5604 5600 5596 5594 5595 5597 5605 5599 5602 5606 5616 5635 5640 5639 5647 5659 5669 5677 5685 5695 5701 5704 5708 5714 5718 5722 5725 5728 5731 5733 5733 5733 5734 5735 5735 5735
5608 5601 5596 5596 5597 5595 5592 5596 5591 5593 5592 5591 5589 5587 5581 5586 5591 5598 5603 5609 5628 5628 5638 5647 5659 5668 5680 5688 5693 5696 5702 5706 5712 5715 5720 5722 5724 5726 5726 5727 5728 5728 5729 5730
5603 5599 5592 5591 5593 5589 5591 5590 5591 5590 5588 5585 5584 5586 5582 5584 5590 5592 5595 5605 5612 5626 5630 5641 5651 5660 5671 5678 5684 5691 5696 5701 5707 5710 5713 5717 5719 5720 5721 5722 5723 5724 5724 5725
5598 5596 5590 5587 5585 5584 5581 5584 5584 5585 5582 5578 5579 5578 5578 5572 5581 5590 5596 5600 5603 5617 5626 5636 5646 5654 5662 5670 5679 5684 5689 5697 5701 5704 5709 5711 5713 5714 5717 5718 5719 5719 5720 5720
5595 5593 5588 5584 5580 5577 5577 5580 5581 5578 5578 5575 5576 5577 5575 5570 5578 5587 5585 5583 5589 5608 5619 5629 5639 5646 5655 5665 5671 5678 5685 5691 5696 5700 5704 5705 5708 5710 5712 5713 5714 5715 5715 5715
5592 5590 5585 5582 5577 5574 5571 5573 5574 5578 5575 5576 5574 5575 5576 5574 5569 5576 5582 5585 5593 5603 5618 5624 5633 5640 5651 5659 5668 5675 5680 5687 5692 5696 5698 5701 5703 5706 5707 5708 5709 5710 5711 5710
5590 5586 5582 5580 5574 5571 5571 5570 5567 5564 5566 5563 5567 5568 5571 5570 5569 5572 5574 5582 5591 5602 5615 5623 5631 5640 5647 5657 5664 5672 5678 5684 5688 5691 5695 5697 5700 5702 5703 5704 5705 5706 5706 5704
5587 5582 5578 5574 5570 5568 5569 5566 5562 5560 5560 5561 5557 5560 5563 5566 5570 5576 5580 5579 5589 5598 5611 5622 5629 5636 5640 5653 5661 5669 5675 5680 5685 5688 5692 5694 5697 5698 5699 5700 5701 5701 5701 5700
5583 5580 5576 5571 5569 5566 5564 5562 5560 5560 5562 5551 5553 5557 5561 5563 5565 5576 5580 5583 5589 5598 5612 5623 5630 5634 5641 5654 5661 5668 5674 5678 5682 5686 5688 5691 5693 5694 5695 5696 5697 5698 5697 5697
5581 5578 5575 5571 5567 5563 5560 5558 5556 5555 5555 5549 5548 5549 5553 5557 5563 5569 5572 5581 5587 5598 5611 5622 5629 5635 5645 5652 5660 5667 5672 5676 5680 5683 5685 5688 5690 5690 5692 5692 5693 5694 5694 5695
5579 5575 5572 5568 5564 5561 5556 5552 5551 5550 5551 5546 5542 5545 5547 5555 5563 5570 5573 5580 5584 5599 5611 5621 5628 5634 5645 5652 5660 5665 5670 5674 5678 5679 5683 5685 5686 5688 5688 5689 5690 5691 5693 5694
5576 5572 5569 5564 5560 5558 5551 5548 5546 5543 5540 5538 5538 5540 5546 5550 5560 5567 5573 5581 5591 5602 5611 5619 5622 5627 5644 5653 5659 5664 5669 5673 5675 5678 5681 5682 5684 5685 5687 5687 5688 5690 5692 5692
5574 5570 5565 5561 5556 5551 5546 5543 5539 5535 5533 5532 5533 5536 5542 5551 5561 5568 5576 5583 5593 5604 5609 5617 5611 5631 5642 5652 5658 5663 5668 5670 5673 5676 5679 5680 5682 5684 5685 5686 5686 5689 5691 5691
5569 5564 5561 5555 5551 5545 5540 5535 5530 5528 5526 5527 5528 5530 5536 5549 5558 5567 5577 5587 5596 5603 5612 5614 5609 5631 5642 5651 5657 5663 5667 5669 5673 5675 5677 5679 5680 5681 5683 5684 5685 5687 5688 5689
5564 5561 5556 5551 5545 5539 5531 5526 5521 5522 5522 5523 5525 5529 5538 5550 5559 5570 5578 5589 5599 5604 5610 5615 5621 5636 5642 5650 5657 5663 5665 5669 5672 5674 5676 5677 5679 5680 5681 5682 5683 5684 5686 5687
5560 5556 5552 5545 5539 5531 5524 5521 5519 5519 5521 5521 5524 5534 5543 5553 5561 5570 5582 5590 5598 5602 5611 5622 5629 5638 5645 5652 5658 5662 5665 5669 5671 5673 5675 5677 5679 5679 5680 5680 5681 5683 5684 5686